Flight Track Log - Related Links

Times and Time Zones

All times are in EDT time to prevent confusion due to time zone crossing. See the AWE1961 flight status page for this flight to view local times or setup timezone preferences in your user account.

Time Position Orientation Groundspeed Altitude Reporting Facility
EDT Latitude Longitude Course Direction KTS MPH feet Rate Location/Type
Wed 08:55:41 AM 40.6358 -73.8639 232° Southwest 183 211 1,900  Level New York Center
Wed 08:56:41 AM 40.5906 -73.9139 220° Southwest 248 285 3,300 1,700 Climbing New York Center
Wed 08:57:00 AM 40.4655 -74.0368 246° West  Level FlightAware Approximate
Wed 08:57:41 AM 40.5394 -73.9553 212° Southwest 287 330 5,300  Level New York Center
Wed 08:58:00 AM 40.4097 -74.1306 237° Southwest  Level FlightAware Approximate
Wed 08:58:56 AM 40.4500 -74.0333 214° Southwest 277 319 9,200  Level New York TRACON
Wed 08:59:00 AM 40.3537 -74.2216 232° Southwest  Level FlightAware Approximate
Wed 09:00:00 AM 40.2961 -74.3178 232° Southwest  Level FlightAware Approximate
Wed 09:00:41 AM 40.3606 -74.1731 230° Southwest 308 354 11,200  Level New York Center
Wed 09:01:41 AM 40.2983 -74.2978 237° Southwest 357 411 13,100 2,050 Climbing New York Center
Wed 09:02:41 AM 40.2406 -74.4172 238° Southwest 383 441 15,300 2,000 Climbing New York Center
Wed 09:03:41 AM 40.1978 -74.5211 242° Southwest 383 441 17,100 1,900 Climbing New York Center
Wed 09:04:41 AM 40.1892 -74.6564 265° West 369 425 19,100 1,700 Climbing New York Center
Wed 09:05:41 AM 40.1783 -74.7969 264° West 382 440 20,500 1,500 Climbing New York Center
Wed 09:07:41 AM 40.1550 -75.0997 266° West 401 461 23,600 1,533 Climbing New York Center
Wed 09:08:41 AM 40.1433 -75.2458 264° West 406 467 25,100 1,300 Climbing New York Center
Wed 09:09:41 AM 40.1192 -75.3881 258° West 406 467 26,200 1,650 Climbing New York Center
Wed 09:10:41 AM 40.0503 -75.4947 230° Southwest 390 449 28,400 1,267 Climbing New York Center
Wed 09:12:41 AM 39.9108 -75.6908 229° Southwest 377 434 30,000 533 Climbing New York Center
Wed 09:13:41 AM 39.8458 -75.7972 232° Southwest 387 445 30,000  Level New York Center
Wed 09:15:42 AM 39.7067 -76.0094 231° Southwest 390 449 30,000  Level Washington Center
Wed 09:16:42 AM 39.6417 -76.1197 233° Southwest 390 449 30,000 -50 Level Washington Center
Wed 09:17:43 AM 39.5722 -76.2242 229° Southwest 390 449 29,900 -50 Descending Washington Center
Wed 09:18:43 AM 39.5008 -76.3339 230° Southwest 390 449 29,900  Level Washington Center
Wed 09:19:42 AM 39.4314 -76.4406 230° Southwest 396 456 29,900 50 Level Washington Center
Wed 09:20:43 AM 39.3661 -76.5392 229° Southwest 406 467 30,000 49 Climbing Washington Center
Wed 09:21:44 AM 39.2964 -76.6483 230° Southwest 406 467 30,000  Level Washington Center
Wed 09:22:42 AM 39.2267 -76.7597 231° Southwest 401 461 30,000  Level Washington Center
Wed 09:23:42 AM 39.1547 -76.8711 230° Southwest 401 461 30,000  Level Washington Center
Wed 09:24:43 AM 39.0847 -76.9794 230° Southwest 401 461 30,000  Level Washington Center
Wed 09:26:42 AM 38.9111 -77.1869 218° Southwest 401 461 30,000  Level Washington Center
Wed 09:27:43 AM 38.8264 -77.2783 220° Southwest 406 467 30,000  Level Washington Center
Wed 09:28:44 AM 38.7397 -77.3722 220° Southwest 411 473 30,000  Level Washington Center
Wed 09:29:41 AM 38.6550 -77.4658 221° Southwest 411 473 30,000  Level Washington Center
Wed 09:30:42 AM 38.5700 -77.5594 221° Southwest 411 473 30,000  Level Washington Center
Wed 09:31:43 AM 38.4828 -77.6553 221° Southwest 411 473 30,000  Level Washington Center
Wed 09:32:44 AM 38.3958 -77.7456 219° Southwest 411 473 30,000  Level Washington Center
Wed 09:33:44 AM 38.3086 -77.8383 220° Southwest 411 473 30,000  Level Washington Center
Wed 09:34:42 AM 38.2214 -77.9333 221° Southwest 411 473 30,000  Level Washington Center
Wed 09:35:42 AM 38.1339 -78.0283 221° Southwest 411 473 30,000  Level Washington Center
Wed 09:36:43 AM 38.0444 -78.1203 219° Southwest 411 473 30,000  Level Washington Center
Wed 09:38:00 AM 37.9476 -78.2268 229° Southwest  Level FlightAware Approximate
Wed 09:38:44 AM 37.8958 -78.3311 229° Southwest 411 473 30,000  Level Washington Center
Wed 09:39:44 AM 37.8183 -78.4414 228° Southwest 417 480 30,000  Level Washington Center
Wed 09:40:42 AM 37.7428 -78.5489 228° Southwest 417 480 30,000  Level Washington Center
Wed 09:41:43 AM 37.6669 -78.6586 229° Southwest 423 487 30,000  Level Washington Center
Wed 09:42:43 AM 37.5975 -78.7556 228° Southwest 423 487 30,000  Level Washington Center
Wed 09:44:00 AM 37.5098 -78.8768 228° Southwest  Level FlightAware Approximate
Wed 09:44:42 AM 37.4436 -78.9714 228° Southwest 423 487 30,000  Level Washington Center
Wed 09:45:43 AM 37.3653 -79.0803 228° Southwest 429 494 30,000  Level Washington Center
Wed 09:46:44 AM 37.2847 -79.1942 228° Southwest 429 494 30,000  Level Washington Center
Wed 09:47:42 AM 37.1817 -79.2961 218° Southwest 429 494 30,000 -51 Level Washington Center
Wed 09:48:42 AM 37.0831 -79.3772 213° Southwest 429 494 29,900 -467 Descending Washington Center
Wed 09:50:00 AM 36.9700 -79.4635 211° Southwest  Level FlightAware Approximate
Wed 09:50:42 AM 36.9008 -79.5294 211° Southwest 405 466 28,600  Level Washington Center
Wed 09:52:43 AM 36.7314 -79.6658 214° Southwest 395 455 26,700 -950 Descending Washington Center
Wed 09:55:20 AM 36.4958 -79.8578 213° Southwest 380 437 24,200 -605 Descending Atlanta Center
Wed 09:58:20 AM 36.2342 -80.0719 209° Southwest 380 437 23,300 -825 Descending Atlanta Center
Wed 09:59:20 AM 36.1489 -80.1458 215° Southwest 380 437 20,900 -2,154 Descending Atlanta Center
Wed 10:02:14 AM 35.9172 -80.3492 231° Southwest 350 403 14,900 -1,800 Descending Atlanta Center
Wed 10:03:20 AM 35.8317 -80.4169 213° Southwest 353 406 13,700 -1,048 Descending Atlanta Center
Wed 10:04:20 AM 35.7606 -80.4764 214° Southwest 333 383 12,700 -700 Descending Atlanta Center
Wed 10:05:20 AM 35.6911 -80.5358 215° Southwest 320 368 12,300 -400 Descending Atlanta Center
Wed 10:06:20 AM 35.6219 -80.5950 215° Southwest 315 362 11,900 -400 Descending Atlanta Center
Wed 10:07:20 AM 35.5567 -80.6514 215° Southwest 301 346 11,500 -450 Descending Atlanta Center
Wed 10:08:00 AM 35.4459 -80.6061 231° Southwest  Level FlightAware Approximate
Wed 10:08:20 AM 35.4833 -80.7078 212° Southwest 310 357 11,000  Level Atlanta Center
Wed 10:10:29 AM 35.3406 -80.8308 219° Southwest 298 343 10,100 -597 Descending Atlanta Center
Wed 10:11:31 AM 35.2489 -80.8369 183° South 305 351 9,100 -872 Descending Atlanta Center
Wed 10:12:26 AM 35.1839 -80.8317 176° South 264 304 8,400 -1,190 Descending Atlanta Center
Wed 10:13:27 AM 35.1086 -80.8269 177° South 246 283 6,800 -1,426 Descending Atlanta Center
Wed 10:14:28 AM 35.0397 -80.8222 177° South 244 281 5,500 -918 Descending Atlanta Center
Wed 10:16:30 AM 34.9164 -80.8142 329° Northwest 214 246 4,000 -489 Descending Atlanta Center
Wed 10:17:32 AM 34.9139 -80.8725 267° West 189 217 4,000  Level Atlanta Center
Wed 10:18:00 AM 35.2137 -80.9491 329° Northwest  Level Estimated
Wed 10:18:27 AM 34.9564 -80.9014 331° Northwest 182 209 4,000  Level Atlanta Center
Wed 10:20:35 AM 35.0569 -80.9256 219° Southwest 158 182 3,600 -559 Descending Atlanta Center
Wed 10:23:38 AM 35.1844 -80.9358 219° Southwest 136 157 1,100 -820 Descending Atlanta Center
Wed 10:25:00 AM 35.2137 -80.9491 353° North  Level Estimated
Wed 10:28:00 AM 35.2000 -80.9333 219° Southwest  Level FlightAware Approximate
Wed 10:29:00 AM 35.2137 -80.9491 219° Southwest  Level Estimated
Wed 10:32:00 AM 35.2137 -80.9491 219° Southwest  Level Estimated

Login

Don't have an account? Register now (free) for customized features, flight alerts, and more!